Location: New Plymouth
(39.0670°S, 174.0830°E)
Time: 23:51:36
(UTC+12:00)

ISS - Pass Details

Date: 21 June 2019
Orbit: 409 x 418 km, 51.6° (Epoch: 23 July)

Event Time Altitude Azimuth Distance (km) Brightness Sun altitude
Rises 18:12:07 0° 1° (N) 2,362 0.3 -12.1°
Reaches altitude 10° 18:16:23 10° 53° (NE) 1,514 -1.2 -12.9°
Maximum altitude 18:16:26 10° 53° (NE) 1,514 -1.3 -12.9°
Drops below altitude 10° 18:16:29 10° 54° (NE) 1,515 -1.3 -12.9°
Enters shadow 18:16:40 10° 57° (ENE) 1,519 -1.3 -12.9°
